[Iaude] MPEC K100: 2024 KH [a=1.56,e=0.29,i=3.2,H=24.5]
    mpec at cfa.harvard.edu 
    mpec at cfa.harvard.edu
       
    Tue May 28 01:07:28 EDT 2024
    
    
  
M.P.E.C. 2024-K100                                 Issued 2024 May 28, 05:06 UT
     The Minor Planet Electronic Circulars contain information on unusual
         minor planets, routine data on comets and natural satellites,
         and occasional editorial announcements.  They are published
    on behalf of Division F of the International Astronomical Union by the
          Minor Planet Center, Smithsonian Astrophysical Observatory,
                          Cambridge, MA 02138, U.S.A.
			  
             Prepared using the Tamkin Foundation Computer Network
                              MPC at CFA.HARVARD.EDU
            URL https://www.minorplanetcenter.net/    ISSN 1523-6714
                                    2024 KH                                     
Observations:
     K24K00H* C2024 05 26.27486014 43 06.085+12 41 37.97         21.77wXEK100F52
     K24K00H  C2024 05 26.28660114 43 07.181+12 41 35.82         22.44wXEK100F52
     K24K00H  C2024 05 26.29835014 43 08.217+12 41 33.28         21.72wXEK100F52
     K24K00H  C2024 05 27.21652914 44 52.362+12 37 04.29         21.4 GVEK100H01
     K24K00H  C2024 05 27.22106814 44 52.788+12 37 02.96         21.4 GVEK100H01
     K24K00H  C2024 05 27.23194314 44 53.797+12 36 59.65         21.7 GVEK100H01
     K24K00H  C2024 05 27.23810314 44 54.369+12 36 57.69         21.4 GVEK100H01
     K24K00H  C2024 05 27.34480114 45 07.682+12 36 39.17         21.61GVEK100F52
     K24K00H  C2024 05 27.34562514 45 07.770+12 36 38.78         21.88GVEK100F52
     K24K00H  C2024 05 28.18075214 46 48.369+12 31 32.83         21.7 GVEK100H01
     K24K00H  C2024 05 28.18478914 46 48.769+12 31 31.43         21.4 GVEK100H01
     K24K00H  C2024 05 28.19535314 46 49.798+12 31 27.70         21.5 GVEK100H01
     K24K00H  C2024 05 28.20216514 46 50.470+12 31 25.18         21.4 GVEK100H01
Observer details:
F52 Pan-STARRS 2, Haleakala.  Observers J. Herman, T. Lowe, P. Minguez, A.
    Schultz, I. Smith.  Measurers K. Chambers, T. de Boer, J. Fairlamb, H.
    Gao, M. Huber, C.-C. Lin, E. Magnier, Y. Ramanjooloo, R. Wainscoat, R.
    Weryk.  1.8-m Ritchey-Chretien + CCD.
H01 Magdalena Ridge Observatory, Socorro.  Observers W. H. Ryan, E. V. Ryan.
    Measurer W. H. Ryan.  2.4-m f/8.9 Ritchey-Chretien + CCD.
Orbital elements:
2024 KH                                                  Earth MOID = 0.1001 AU
Epoch 2024 Mar. 31.0 TT = JDT 2460400.5                 MPC                     
M 322.25217              (2000.0)            P               Q                  
n   0.50511002     Peri.  123.85503     -0.17714209     +0.98342312             
a   1.5615122      Node   135.88951     -0.92035535     -0.15158558             
e   0.2930012      Incl.    3.18938     -0.34866417     -0.09950270             
P   1.95           H   24.56          G   0.15           U   9                  
Residuals in seconds of arc
240526 F52  0.4-  0.1-    240527 H01  0.0   0.0     240528 H01  0.1+  0.0
240526 F52  0.2+  0.1+    240527 H01  0.0   0.0     240528 H01  0.1-  0.0
240526 F52  0.1+  0.0     240527 F52  0.1-  0.1+    240528 H01  0.0   0.0
240527 H01  0.0   0.1-    240527 F52  0.0   0.0
240527 H01  0.1+  0.0     240528 H01  0.0   0.0
Ephemeris:
2024 KH                  a,e,i = 1.56, 0.29, 3                   q = 1.1040
Date    TT    R. A. (2000) Decl.     Delta      r    Elong.  Phase     V
2024 04 28    14 14 42.0 +08 35 38   0.1817  1.1764   157.2    19.4    22.2
...
2024 05 13    14 24 28.2 +12 04 48   0.1499  1.1386   146.6    29.2    22.0
...
2024 05 21    14 34 11.8 +12 48 09   0.1377  1.1236   141.9    33.8    21.9
...
2024 05 27    14 44 26.6 +12 38 35   0.1301  1.1150   139.3    36.3    21.8
2024 05 28    14 46 25.2 +12 33 06   0.1289  1.1138   139.0    36.7    21.8
2024 05 29    14 48 28.4 +12 26 26   0.1278  1.1127   138.7    37.0    21.8
...
2024 06 04    15 02 29.5 +11 20 34   0.1220  1.1073   137.4    38.3    21.7
...
2024 06 12    15 25 51.5 +08 39 11   0.1165  1.1041   137.4    38.5    21.6
...
2024 06 27    16 21 58.3 +00 14 21   0.1157  1.1102   142.1    34.2    21.5
A. U. Tomatic                (C) Copyright 2024 MPC           M.P.E.C. 2024-K100
    
    
More information about the Iaude
mailing list